Lapse_Rate
6.0 7.4 7.4 8.9 9.3 9.5 9.5 9.5 9.4 7.7 9.1 9.2 8.6 8.1 7.6 8.4 7.1 8.0 7.2 7.1 6.0 5.2
6.0 6.2 9.0 8.5 8.9 9.3 9.2 9.6 9.4 9.4 9.5 9.4 9.1 8.7 8.1 9.3 8.6 7.2 6.9 8.0 6.3 6.4
7.5 5.8 6.5 8.5 8.1 9.3 9.5 9.3 8.7 8.9 9.3 9.2 9.0 9.1 8.6 8.8 8.1 7.2 7.3 8.1 6.7 5.1
9.2 8.7 6.6 7.5 8.0 7.8 9.4 9.2 8.6 7.6 8.8 9.0 8.6 8.4 8.2 8.2 7.6 7.6 8.0 7.1 7.2 6.5
9.1 8.8 9.2 7.1 8.3 8.3 7.7 8.9 8.4 8.1 7.1 7.5 8.3 8.5 8.5 8.2 8.8 7.9 6.2 6.8 7.2 6.5
9.1 9.0 9.0 9.1 9.0 9.4 8.7 7.6 9.4 8.5 7.3 7.7 8.8 8.5 8.4 7.3 7.3 7.2 6.7 6.3 6.5 7.9
9.2 9.3 9.3 9.3 9.3 9.4 9.2 8.4 9.1 9.3 8.9 8.6 8.8 8.0 7.7 7.5 6.9 6.8 6.5 6.6 7.8 7.8
9.1 9.3 9.2 9.0 8.9 9.1 9.3 8.9 9.1 8.7 8.5 7.8 8.1 7.8 7.6 7.5 6.9 6.9 6.5 6.9 7.7 7.4
8.1 8.7 8.8 8.7 7.6 7.5 8.4 9.0 8.7 8.1 7.3 7.6 8.8 6.3 4.5 7.2 8.0 7.6 7.5 7.8 7.5 7.1
7.8 7.7 7.9 7.8 6.7 6.3 7.1 8.8 8.1 7.8 7.3 7.2 8.5 2.4 3.4 4.4 9.0 7.6 7.7 7.8 8.8 9.0
7.2 6.5 6.9 7.1 6.3 6.5 6.3 8.2 8.5 7.8 8.8 7.5 7.2 2.2 2.5 3.4 7.4 8.8 8.9 9.0 9.1 9.0
6.6 5.1 7.5 8.1 6.9 8.1 7.1 8.4 8.7 8.9 7.9 8.2 8.8 1.3 1.0 2.5 6.7 8.2 8.7 8.1 8.5 9.2
6.1 5.5 6.3 8.3 8.3 8.5 8.8 8.8 9.2 9.0 8.9 7.6 8.7 0.3 -0.2 1.7 8.7 9.0 8.7 8.3 8.0 4.9
7.1 6.0 6.0 7.9 8.3 8.4 8.4 8.7 8.6 8.7 8.7 8.1 7.9 5.3 -1.0 -1.1 6.7 9.2 8.7 7.6 7.3 7.7
Wind_Speed
15 12 12 12 11 10 10 9 7 13 11 11 11 8 8 9 7 8 8 11 7 4
15 15 13 13 12 11 9 9 8 8 9 9 10 10 9 8 8 7 7 9 9 7
17 16 15 12 13 11 11 11 8 9 9 10 10 11 9 9 8 9 8 7 8 9
16 17 15 15 14 13 13 10 10 9 10 11 10 11 10 9 9 10 10 7 7 9
15 14 16 16 16 14 14 13 12 11 12 12 10 11 11 12 10 9 9 10 10 11
17 16 16 16 15 15 13 13 14 13 12 13 11 11 11 11 10 8 10 9 9 9
17 17 16 15 13 15 13 14 14 13 13 14 12 10 9 8 7 8 9 9 9 6
15 14 14 13 12 12 12 12 13 11 10 10 10 7 11 10 10 10 8 7 9 8
12 12 11 11 12 11 11 11 12 9 8 8 9 12 14 10 10 10 10 8 8 7
12 12 12 11 12 12 12 11 10 9 10 11 12 8 14 12 9 9 8 9 8 8
13 13 13 13 13 13 12 12 11 11 10 8 8 11 11 10 11 9 7 9 10 10
15 15 14 14 14 13 12 11 11 11 8 8 8 13 13 10 10 11 7 8 10 12
16 15 15 14 12 11 10 11 11 11 11 9 10 14 14 12 9 11 9 9 10 11
15 14 14 13 10 11 11 10 10 10 7 9 11 12 15 16 10 9 6 3 3 6
Wind_Direction
210 215 215 215 238 219 240 235 219 182 203 217 237 235 235 242 243 241 237 232 209 206
208 219 216 222 204 238 245 241 233 217 228 228 241 235 235 243 232 238 242 227 229 237
210 209 221 216 223 226 225 224 259 204 221 229 233 235 229 239 236 237 235 246 214 238
208 210 213 219 219 220 228 226 211 225 218 228 230 233 232 233 237 239 234 224 236 232
205 207 208 216 217 218 221 223 223 215 222 226 225 225 223 231 236 224 234 239 236 245
201 205 215 209 217 211 214 219 221 214 219 222 220 222 226 230 234 223 235 239 238 246
208 208 212 215 210 215 204 213 221 218 213 224 221 219 225 225 225 225 229 230 234 234
210 215 209 204 209 214 209 207 218 218 217 211 222 206 215 215 219 216 220 225 229 219
192 213 207 199 196 200 204 206 204 214 191 212 230 195 182 206 212 213 219 222 217 245
189 200 201 196 193 194 199 195 192 205 184 198 225 157 169 193 212 200 212 222 233 218
191 194 195 194 198 195 192 194 185 197 206 185 197 166 170 180 228 238 212 232 218 241
190 187 194 198 196 198 192 188 187 193 188 203 211 168 171 182 215 236 229 217 229 234
187 188 189 195 196 194 201 193 187 194 188 176 217 174 170 188 224 219 222 229 230 235
197 183 180 177 185 193 196 199 207 180 178 188 204 177 176 189 222 249 248 231 250 230